Regional Weather Roundup
Issued by NWS

Home | Current Version | Previous Version | Graphics & Text | Print | Product List | Glossary Off
Versions: 1 2 3 4 5 6 7 8 9 10 11 12 13 14 15 16 17 18 19 20 21 22 23 24 25 26 27 28 29 30 31 32 33 34 35 36 37 38 39 40 41 42 43 44 45 46 47 48 49 50

000
ASUS43 KOAX 171810
RWRNE

WEATHER ROUNDUP FOR NEBRASKA
NATIONAL WEATHER SERVICE OMAHA NE
100 PM CDT THU AUG 17 2017

NOTES: SATELLITE DATA IS BEING USED TO AUGMENT CLOUD COVER ABOVE
       12000 FEET.
       "FAIR" INDICATES FEW OR NO CLOUDS BELOW 12,000 FEET WITH NO
       SIGNIFICANT WEATHER AND/OR OBSTRUCTIONS TO VISIBILITY.


NEZ001>004-019>022-054>056-171900-
NEBRASKA PANHANDLE

CITY           SKY/WX    TMP DP  RH WIND       PRES   REMARKS
SCOTTSBLUFF    SUNNY     82  50  32 NW8       30.04F
6HR MIN TEMP:  53; 6HR MAX TEMP:  82;

ALLIANCE       SUNNY     82  54  37 SW13      30.03F
6HR MIN TEMP:  47; 6HR MAX TEMP:  82;

CHADRON        SUNNY     84  52  33 N6        29.96F
6HR MIN TEMP:  49; 6HR MAX TEMP:  84;

GORDON         FAIR      83  54  37 S10G18    29.98F
6HR MIN TEMP:  55; 6HR MAX TEMP:  83;

KIMBALL        SUNNY     79  46  31 W3        30.10F
SIDNEY         SUNNY     82  54  37 SW12      30.08F
6HR MIN TEMP:  51; 6HR MAX TEMP:  82;

$$

NEZ057>060-069>072-079>082-171900-
SOUTHWEST NEBRASKA

CITY           SKY/WX    TMP DP  RH WIND       PRES   REMARKS
NORTH PLATTE   SUNNY     82  58  43 SW7       30.03F
6HR MIN TEMP:  50; 6HR MAX TEMP:  82;

IMPERIAL       SUNNY     84  54  35 S12G20    30.06F
6HR MIN TEMP:  52; 6HR MAX TEMP:  84;

LEXINGTON      SUNNY     80  56  44 W9        30.04F
MCCOOK         SUNNY     83  55  38 SW8       30.04F
6HR MIN TEMP:  54; 6HR MAX TEMP:  83;

OGALLALA       SUNNY     82  57  42 SW10      30.04F
$$

NEZ005>010-023>029-035>040-094-171900-
NORTH CENTRAL NEBRASKA

CITY           SKY/WX    TMP DP  RH WIND       PRES   REMARKS
VALENTINE      SUNNY     85  49  28 SW5       29.96F
6HR MIN TEMP:  51; 6HR MAX TEMP:  85;

AINSWORTH      SUNNY     81  56  42 SW5       29.99S
BROKEN BOW     SUNNY     82  58  43 W8        30.02F
6HR MIN TEMP:  54; 6HR MAX TEMP:  82;

O`NEILL        SUNNY     76  58  53 CALM      29.99F
ORD            SUNNY     80  56  43 SW8       29.99F
6HR MIN TEMP:  51; 6HR MAX TEMP:  80;

THEDFORD       SUNNY     83  56  39 SW13      30.02F
$$

NEZ041-046>049-061>064-073>077-083>087-171900-
SOUTH CENTRAL NEBRASKA

CITY           SKY/WX    TMP DP  RH WIND       PRES   REMARKS
GRAND ISLAND   SUNNY     80  60  50 W13       30.01F
6HR MIN TEMP:  56; 6HR MAX TEMP:  81;

AURORA         SUNNY     78  58  49 W9        30.01S
HASTINGS       SUNNY     79  60  52 W12       30.03F
6HR MIN TEMP:  56; 6HR MAX TEMP:  79;

HEBRON         SUNNY     81  56  42 NW8       30.01F
HOLDREGE       SUNNY     77  59  53 W9        30.05S
KEARNEY        SUNNY     79  60  52 SW12      30.03F
YORK           SUNNY     75  63  64 NW9       30.00F
$$

NEZ011>018-030>034-042>045-171900-
NORTHEAST NEBRASKA

CITY           SKY/WX    TMP DP  RH WIND       PRES   REMARKS
NORFOLK        SUNNY     77  57  50 NW8       29.95S
6HR MIN TEMP:  58; 6HR MAX TEMP:  77;

ALBION         SUNNY     80  58  47 NW9       29.99S
BLAIR          RAIN      76  61  60 W13G20    29.94F
COLUMBUS       SUNNY     76  61  59 NW10      29.98F
FREMONT        SUNNY     77  59  53 NW13G22   29.96S
TEKAMAH        SUNNY     78  60  53 NW15G26   29.92S
6HR MIN TEMP:  62; 6HR MAX TEMP:  78;

WAYNE          SUNNY     75  59  55 NW14      29.95S
$$

NEZ050>053-065>068-078-088>093-171900-
SOUTHEAST NEBRASKA

CITY           SKY/WX    TMP DP  RH WIND       PRES   REMARKS
LINCOLN        SUNNY     80  57  45 NW14      29.98S
6HR MIN TEMP:  62; 6HR MAX TEMP:  81;

OMAHA EPPLEY   MOSUNNY   80  59  48 NW21      29.93S
6HR MIN TEMP:  65; 6HR MAX TEMP:  80;

BEATRICE       SUNNY     82  58  43 W14       29.99F
FALLS CITY     SUNNY     79  59  50 NW21G26   29.96R
6HR MIN TEMP:  65; 6HR MAX TEMP:  80;

NEBRASKA CITY  SUNNY     79  59  50 NW15G24   29.96S
PLATTSMOUTH    SUNNY     77  58  52 W15G21    29.94F
$$

NEZ044-045-051>053-067-171900-
OMAHA AREA

CITY           SKY/WX    TMP DP  RH WIND       PRES   REMARKS
OMAHA EPPLEY   MOSUNNY   80  59  48 NW21      29.93S
6HR MIN TEMP:  65; 6HR MAX TEMP:  80;

BLAIR          RAIN      76  61  60 W13G20    29.94F
FREMONT        SUNNY     77  59  53 NW13G22   29.96S
MILLARD        SUNNY     79  60  52 W15G21    29.94S
OFFUTT AFB     SUNNY     80  56  42 NW17G24   29.93S
PLATTSMOUTH    SUNNY     77  58  52 W15G21    29.94F
WAHOO          FAIR      76  60  57 NW15G21   29.96S
$$



USA.gov is the U.S. government's official web portal to all federal, state and local government web resources and services.